Location: ????????
(55.6189°N, 38.3031°E)
Time: 06:10:13
(UTC+00:00)

In-Cosmos 22 Rocket - Pass Details

Date: 15 November 2019
Orbit: 791 x 887 km, 81.2° (Epoch: 08 December)

Event Time Altitude Azimuth Distance (km) Brightness Sun altitude
Rises 03:07:05 0° 199° (SSW) 3,298 7.2 -15.7°
Reaches altitude 10° 03:09:27 10° 201° (SSW) 2,381 6.4 -15.3°
Maximum altitude 03:14:49 73° 287° (WNW) 861 4.0 -14.6°
Drops below altitude 10° 03:20:22 10° 12° (NNE) 2,456 6.6 -13.8°
Sets 03:22:50 0° 15° (NNE) 3,409 7.4 -13.5°
